| time (UTC) | temp F | wind direction | speed knots | gust knots | rain 1hr in | rain 24hr in | rain mn in | humidity % | barometer mb |
| 20260505051858 | 76 | 345 | 1.7 | 3.5 | 0.00 | 0.00 | 0.00 | 72 | 1018.1 |
| 20260505051355 | 76 | 345 | 2.6 | 3.5 | 0.00 | 0.00 | 0.00 | 72 | 1018.3 |
| 20260505050853 | 76 | 345 | 1.7 | 2.6 | 0.00 | 0.00 | 0.00 | 72 | 1018.1 |
| 20260505050351 | 76 | 345 | 0.0 | 0.9 | 0.00 | 0.00 | 0.00 | 72 | 1018.1 |
| 20260505041318 | 79 | 345 | 4.3 | 6.1 | 0.00 | 0.00 | 0.00 | 67 | 1017.7 |
| 20260505040815 | 80 | 345 | 1.7 | 7.8 | 0.00 | 0.00 | 0.00 | 66 | 1017.6 |
| 20260505040313 | 80 | 345 | 2.6 | 8.7 | 0.00 | 0.00 | 0.00 | 65 | 1017.6 |
| 20260505035809 | 80 | 346 | 5.2 | 7.0 | 0.00 | 0.00 | 0.00 | 64 | 1017.6 |
| 20260505035305 | 80 | 345 | 0.9 | 3.5 | 0.00 | 0.00 | 0.00 | 67 | 1017.6 |
| 20260505034803 | 80 | 345 | 3.5 | 6.1 | 0.00 | 0.00 | 0.00 | 68 | 1017.5 |
| 20260505034259 | 80 | 345 | 1.7 | 2.6 | 0.00 | 0.00 | 0.00 | 67 | 1017.5 |
| 20260505033756 | 80 | 346 | 1.7 | 6.1 | 0.00 | 0.00 | 0.00 | 67 | 1017.5 |
| 20260505033253 | 80 | 346 | 1.7 | 7.8 | 0.00 | 0.00 | 0.00 | 67 | 1017.5 |
| 20260505032751 | 79 | 346 | 3.5 | 6.1 | 0.00 | 0.00 | 0.00 | 67 | 1017.5 |
| 20260505032247 | 79 | 345 | 4.3 | 7.0 | 0.00 | 0.00 | 0.00 | 67 | 1017.6 |
| 20260505031745 | 80 | 345 | 6.1 | 8.7 | 0.00 | 0.00 | 0.00 | 66 | 1017.6 |
| 20260505031241 | 81 | 345 | 3.5 | 7.0 | 0.00 | 0.00 | 0.00 | 65 | 1017.5 |
| 20260505030738 | 81 | 345 | 2.6 | 3.5 | 0.00 | 0.00 | 0.00 | 66 | 1017.6 |
| 20260505030234 | 80 | 346 | 3.5 | 8.7 | 0.00 | 0.00 | 0.00 | 68 | 1017.4 |
| 20260505025730 | 80 | 345 | 1.7 | 6.1 | 0.00 | 0.00 | 0.00 | 70 | 1017.4 |
| 20260505025228 | 80 | 345 | 1.7 | 5.2 | 0.00 | 0.00 | 0.00 | 69 | 1017.3 |
| 20260505024726 | 80 | 345 | 3.5 | 6.1 | 0.00 | 0.00 | 0.00 | 69 | 1017.3 |
| 20260505024223 | 80 | 345 | 5.2 | 7.8 | 0.00 | 0.00 | 0.00 | 69 | 1017.4 |
| 20260505023720 | 80 | 345 | 1.7 | 6.1 | 0.00 | 0.00 | 0.00 | 69 | 1017.2 |
| 20260505023217 | 80 | 344 | 3.5 | 8.7 | 0.00 | 0.00 | 0.00 | 68 | 1017.4 |
| 20260505022715 | 80 | 344 | 1.7 | 7.0 | 0.00 | 0.00 | 0.00 | 69 | 1017.3 |
| 20260505022211 | 80 | 344 | 5.2 | 8.7 | 0.00 | 0.00 | 0.00 | 69 | 1017.3 |
| 20260505021708 | 81 | 343 | 3.5 | 7.0 | 0.00 | 0.00 | 0.00 | 67 | 1017.5 |
| 20260505021205 | 81 | 343 | 2.6 | 7.8 | 0.00 | 0.00 | 0.00 | 67 | 1017.5 |
| 20260505020701 | 81 | 343 | 2.6 | 7.0 | 0.00 | 0.00 | 0.00 | 68 | 1017.5 |
| 20260505020157 | 81 | 343 | 6.1 | 8.7 | 0.00 | 0.00 | 0.00 | 68 | 1017.4 |
| 20260505015654 | 81 | 343 | 3.5 | 7.0 | 0.00 | 0.00 | 0.00 | 66 | 1017.4 |
| 20260505015151 | 81 | 343 | 2.6 | 3.5 | 0.00 | 0.00 | 0.00 | 66 | 1017.5 |
| 20260505014648 | 81 | 343 | 3.5 | 6.1 | 0.00 | 0.00 | 0.00 | 66 | 1017.6 |
| 20260505014145 | 81 | 343 | 3.5 | 7.0 | 0.00 | 0.00 | 0.00 | 64 | 1017.6 |
| 20260505013642 | 81 | 343 | 2.6 | 5.2 | 0.00 | 0.00 | 0.00 | 66 | 1017.4 |
| 20260505013139 | 81 | 343 | 2.6 | 5.2 | 0.00 | 0.00 | 0.00 | 67 | 1017.4 |
| 20260505012637 | 81 | 343 | 2.6 | 6.1 | 0.00 | 0.00 | 0.00 | 67 | 1017.5 |
| 20260505012134 | 81 | 343 | 3.5 | 6.1 | 0.00 | 0.00 | 0.00 | 65 | 1017.8 |
| 20260505011630 | 81 | 343 | 3.5 | 7.0 | 0.00 | 0.00 | 0.00 | 66 | 1017.7 |
| 20260505011127 | 82 | 343 | 3.5 | 7.0 | 0.00 | 0.00 | 0.00 | 66 | 1017.7 |
| 20260505010627 | 82 | 343 | 6.1 | 9.6 | 0.00 | 0.00 | 0.00 | 68 | 1017.8 |
| 20260505010125 | 83 | 343 | 4.3 | 7.0 | 0.00 | 0.00 | 0.00 | 65 | 1017.9 |
| 20260505005621 | 82 | 343 | 3.5 | 6.1 | 0.00 | 0.00 | 0.00 | 66 | 1017.7 |
| 20260505005118 | 82 | 343 | 7.0 | 9.6 | 0.00 | 0.00 | 0.00 | 67 | 1017.8 |
| 20260505004615 | 82 | 343 | 3.5 | 6.1 | 0.00 | 0.00 | 0.00 | 66 | 1017.8 |
| 20260505004112 | 82 | 343 | 2.6 | 6.1 | 0.00 | 0.00 | 0.00 | 65 | 1018.0 |
| 20260505003609 | 81 | 343 | 3.5 | 8.7 | 0.00 | 0.00 | 0.00 | 67 | 1018.0 |
| 20260505003106 | 82 | 343 | 7.0 | 8.7 | 0.00 | 0.00 | 0.00 | 66 | 1018.0 |
| 20260505002602 | 82 | 343 | 6.1 | 8.7 | 0.00 | 0.00 | 0.00 | 66 | 1017.9 |
| 20260505002101 | 83 | 342 | 4.3 | 7.0 | 0.00 | 0.00 | 0.00 | 64 | 1018.0 |
| 20260505001557 | 83 | 342 | 5.2 | 8.7 | 0.00 | 0.00 | 0.00 | 64 | 1017.9 |
| 20260505001055 | 83 | 343 | 2.6 | 7.8 | 0.00 | 0.00 | 0.00 | 64 | 1018.1 |
| 20260505000552 | 84 | 342 | 3.5 | 9.6 | 0.00 | 0.00 | 0.00 | 63 | 1018.2 |
| 20260505000049 | 85 | 342 | 3.5 | 7.0 | 0.00 | 0.00 | 0.00 | 62 | 1018.2 |
| 20260504235546 | 84 | 343 | 3.5 | 9.6 | 0.00 | 0.00 | 0.00 | 62 | 1018.1 |
| 20260504235043 | 84 | 342 | 5.2 | 9.6 | 0.00 | 0.00 | 0.00 | 61 | 1018.2 |
| 20260504234540 | 84 | 342 | 5.2 | 9.6 | 0.00 | 0.00 | 0.00 | 62 | 1018.3 |
| 20260504234037 | 85 | 342 | 5.2 | 11.3 | 0.00 | 0.00 | 0.00 | 62 | 1018.1 |
| 20260504233532 | 85 | 342 | 4.3 | 6.1 | 0.00 | 0.00 | 0.00 | 60 | 1018.2 |
| 20260504233029 | 84 | 342 | 3.5 | 8.7 | 0.00 | 0.00 | 0.00 | 63 | 1018.3 |
| 20260504232526 | 82 | 342 | 3.5 | 7.0 | 0.00 | 0.00 | 0.00 | 66 | 1018.4 |
| 20260504232024 | 83 | 341 | 12.2 | 14.8 | 0.00 | 0.00 | 0.00 | 65 | 1018.2 |
| 20260504231520 | 84 | 340 | 7.0 | 12.2 | 0.00 | 0.00 | 0.00 | 63 | 1018.2 |
| 20260504231016 | 84 | 340 | 5.2 | 9.6 | 0.00 | 0.00 | 0.00 | 61 | 1018.4 |
| 20260504230513 | 85 | 340 | 5.2 | 9.6 | 0.00 | 0.00 | 0.00 | 62 | 1018.3 |
| 20260504230012 | 84 | 340 | 4.3 | 13.0 | 0.00 | 0.00 | 0.00 | 63 | 1018.3 |
| 20260504225508 | 83 | 340 | 3.5 | 7.8 | 0.00 | 0.00 | 0.00 | 64 | 1018.3 |
| 20260504225006 | 84 | 337 | 6.1 | 14.8 | 0.00 | 0.00 | 0.00 | 64 | 1018.3 |
| 20260504224502 | 84 | 336 | 4.3 | 9.6 | 0.00 | 0.00 | 0.00 | 64 | 1018.4 |
| 20260504223959 | 84 | 336 | 5.2 | 7.8 | 0.00 | 0.00 | 0.00 | 62 | 1018.3 |
| 20260504223455 | 84 | 336 | 10.4 | 13.0 | 0.00 | 0.00 | 0.00 | 63 | 1018.6 |
| 20260504222951 | 85 | 336 | 5.2 | 11.3 | 0.00 | 0.00 | 0.00 | 62 | 1018.4 |
| 20260504222449 | 84 | 335 | 7.0 | 9.6 | 0.00 | 0.00 | 0.00 | 61 | 1018.5 |
| 20260504221946 | 84 | 335 | 4.3 | 9.6 | 0.00 | 0.00 | 0.00 | 62 | 1018.5 |
| 20260504221443 | 84 | 335 | 5.2 | 9.6 | 0.00 | 0.00 | 0.00 | 61 | 1018.7 |
| 20260504220940 | 84 | 335 | 2.6 | 9.6 | 0.00 | 0.00 | 0.00 | 62 | 1018.8 |
| 20260504220436 | 84 | 335 | 2.6 | 8.7 | 0.00 | 0.00 | 0.00 | 64 | 1018.8 |
| 20260504215934 | 82 | 335 | 3.5 | 12.2 | 0.00 | 0.00 | 0.00 | 65 | 1018.8 |
| 20260504215431 | 84 | 334 | 9.6 | 11.3 | 0.00 | 0.00 | 0.00 | 63 | 1018.7 |
| 20260504214927 | 84 | 333 | 7.0 | 8.7 | 0.00 | 0.00 | 0.00 | 62 | 1018.8 |
| 20260504214423 | 83 | 333 | 4.3 | 7.8 | 0.00 | 0.00 | 0.00 | 62 | 1019.0 |
| 20260504213920 | 84 | 325 | 5.2 | 11.3 | 0.00 | 0.00 | 0.00 | 62 | 1019.0 |
| 20260504213416 | 84 | 325 | 2.6 | 14.8 | 0.00 | 0.00 | 0.00 | 63 | 1019.1 |
| 20260504212914 | 83 | 324 | 2.6 | 9.6 | 0.00 | 0.00 | 0.00 | 66 | 1019.2 |
| 20260504212409 | 84 | 325 | 2.6 | 7.8 | 0.00 | 0.00 | 0.00 | 64 | 1019.0 |
| 20260504211908 | 84 | 324 | 3.5 | 5.2 | 0.00 | 0.00 | 0.00 | 64 | 1019.1 |
| 20260504211403 | 83 | 324 | 5.2 | 8.7 | 0.00 | 0.00 | 0.00 | 66 | 1019.2 |
| 20260504210901 | 83 | 324 | 3.5 | 7.0 | 0.00 | 0.00 | 0.00 | 64 | 1019.4 |
| 20260504210357 | 83 | 324 | 9.6 | 11.3 | 0.00 | 0.00 | 0.00 | 63 | 1019.2 |
| 20260504205855 | 82 | 324 | 5.2 | 7.8 | 0.00 | 0.00 | 0.00 | 66 | 1019.4 |
| 20260504205352 | 83 | 324 | 10.4 | 13.0 | 0.00 | 0.00 | 0.00 | 64 | 1019.5 |
| 20260504204850 | 83 | 322 | 1.7 | 6.1 | 0.00 | 0.00 | 0.00 | 65 | 1019.6 |
| 20260504204348 | 83 | 322 | 2.6 | 8.7 | 0.00 | 0.00 | 0.00 | 64 | 1019.4 |
| 20260504203848 | 83 | 322 | 3.5 | 7.8 | 0.00 | 0.00 | 0.00 | 63 | 1019.4 |
| 20260504203344 | 83 | 322 | 5.2 | 8.7 | 0.00 | 0.00 | 0.00 | 64 | 1019.4 |
| 20260504202840 | 82 | 322 | 2.6 | 5.2 | 0.00 | 0.00 | 0.00 | 65 | 1019.7 |
| 20260504202337 | 82 | 321 | 5.2 | 11.3 | 0.00 | 0.00 | 0.00 | 66 | 1019.7 |
| 20260504201834 | 82 | 321 | 1.7 | 9.6 | 0.00 | 0.00 | 0.00 | 67 | 1019.7 |
| 20260504201331 | 82 | 321 | 1.7 | 3.5 | 0.00 | 0.00 | 0.00 | 65 | 1019.7 |
| 20260504200829 | 81 | 321 | 4.3 | 7.0 | 0.00 | 0.00 | 0.00 | 65 | 1019.7 |
| 20260504200325 | 80 | 319 | 3.5 | 6.1 | 0.00 | 0.00 | 0.00 | 68 | 1019.7 |
| 20260504195821 | 80 | 319 | 4.3 | 5.2 | 0.00 | 0.00 | 0.00 | 68 | 1019.7 |
| 20260504195317 | 81 | 319 | 5.2 | 7.8 | 0.00 | 0.00 | 0.00 | 67 | 1019.9 |
| 20260504194814 | 80 | 318 | 1.7 | 3.5 | 0.00 | 0.00 | 0.00 | 69 | 1019.8 |
| 20260504194310 | 81 | 319 | 9.6 | 11.3 | 0.00 | 0.00 | 0.00 | 68 | 1019.8 |
| 20260504193806 | 81 | 316 | 2.6 | 5.2 | 0.00 | 0.00 | 0.00 | 65 | 1020.2 |
| 20260504193304 | 81 | 316 | 3.5 | 5.2 | 0.00 | 0.00 | 0.00 | 66 | 1020.0 |
| 20260504192802 | 81 | 314 | 0.0 | 0.0 | 0.00 | 0.00 | 0.00 | 65 | 1020.1 |
| 20260504192300 | 82 | 313 | 0.0 | 0.0 | 0.00 | 0.00 | 0.00 | 63 | 1020.0 |
| 20260504191758 | 81 | 307 | 0.0 | 0.0 | 0.00 | 0.00 | 0.00 | 67 | 1020.1 |
| 20260504191255 | 80 | 311 | 3.5 | 6.1 | 0.00 | 0.00 | 0.00 | 68 | 1020.1 |
| 20260504190751 | 80 | 301 | 0.0 | 1.7 | 0.00 | 0.00 | 0.00 | 71 | 1020.2 |
| 20260504190247 | 79 | 290 | 2.6 | 2.6 | 0.00 | 0.00 | 0.00 | 72 | 1020.0 |
| 20260504185743 | 78 | 283 | 3.5 | 3.5 | 0.00 | 0.00 | 0.00 | 72 | 1020.1 |
| 20260504185241 | 78 | 278 | 0.9 | 1.7 | 0.00 | 0.00 | 0.00 | 72 | 1020.1 |
| 20260504184737 | 79 | 302 | 0.9 | 3.5 | 0.00 | 0.00 | 0.00 | 72 | 1020.1 |
| 20260504184233 | 79 | 243 | 1.7 | 2.6 | 0.00 | 0.00 | 0.00 | 73 | 1020.0 |
| 20260504183729 | 78 | 227 | 0.9 | 0.9 | 0.00 | 0.00 | 0.00 | 75 | 1020.3 |
| 20260504183226 | 77 | 227 | 0.9 | 1.7 | 0.00 | 0.00 | 0.00 | 76 | 1020.1 |
| 20260504182724 | 76 | 230 | 1.7 | 2.6 | 0.00 | 0.00 | 0.00 | 75 | 1020.1 |
| 20260504182221 | 76 | 238 | 1.7 | 2.6 | 0.00 | 0.00 | 0.00 | 75 | 1020.1 |
| 20260504181718 | 76 | 235 | 1.7 | 1.7 | 0.00 | 0.00 | 0.00 | 76 | 1020.1 |
| 20260504181216 | 76 | 234 | 1.7 | 2.6 | 0.00 | 0.00 | 0.00 | 75 | 1020.0 |
| 20260504180715 | 77 | 249 | 1.7 | 1.7 | 0.00 | 0.00 | 0.00 | 75 | 1020.0 |
| 20260504180213 | 78 | 238 | 0.9 | 1.7 | 0.00 | 0.00 | 0.00 | 77 | 1020.0 |
| 20260504175710 | 77 | 226 | 0.0 | 0.9 | 0.00 | 0.00 | 0.00 | 78 | 1020.0 |
| 20260504175207 | 76 | 236 | 0.0 | 0.9 | 0.00 | 0.00 | 0.00 | 79 | 1020.0 |
| 20260504174705 | 76 | 234 | 0.0 | 0.0 | 0.00 | 0.00 | 0.00 | 79 | 1019.8 |
| 20260504174202 | 75 | 235 | 0.0 | 0.9 | 0.00 | 0.00 | 0.00 | 81 | 1019.8 |
| 20260504173658 | 74 | 219 | 0.0 | 0.9 | 0.00 | 0.00 | 0.00 | 83 | 1019.9 |
| 20260504173156 | 73 | 215 | 0.0 | 0.9 | 0.00 | 0.00 | 0.00 | 83 | 1019.9 |
| 20260504172652 | 73 | 201 | 0.9 | 1.7 | 0.00 | 0.00 | 0.00 | 84 | 1020.0 |
| 20260504172149 | 72 | 226 | 0.0 | 0.9 | 0.00 | 0.00 | 0.00 | 87 | 1019.9 |
| 20260504171645 | 71 | 221 | 0.0 | 0.9 | 0.00 | 0.00 | 0.00 | 87 | 1019.9 |
| 20260504171143 | 70 | 219 | 0.0 | 0.9 | 0.00 | 0.00 | 0.00 | 88 | 1019.9 |
| 20260504170639 | 69 | 218 | 0.0 | 0.9 | 0.00 | 0.00 | 0.00 | 89 | 1019.9 |
| 20260504170136 | 69 | 226 | 0.0 | 1.7 | 0.00 | 0.00 | 0.00 | 89 | 1019.8 |
| 20260504151027 | 66 | 217 | 0.0 | 0.9 | 0.00 | 0.00 | 0.00 | 90 | 1018.9 |
| 20260504150525 | 66 | 209 | 0.9 | 1.7 | 0.00 | 0.00 | 0.00 | 90 | 1018.7 |
| 20260504140956 | 67 | 225 | 0.0 | 0.9 | 0.00 | 0.00 | 0.00 | 90 | 1018.4 |
| 20260504140453 | 66 | 194 | 1.7 | 1.7 | 0.00 | 0.00 | 0.00 | 90 | 1018.3 |
| 20260504130418 | 67 | 215 | 0.0 | 1.7 | 0.00 | 0.00 | 0.00 | 89 | 1018.2 |
| 20260504110304 | 69 | 198 | 0.9 | 1.7 | 0.00 | 0.00 | 0.00 | 85 | 1019.6 |
| 20260504100222 | 70 | 210 | 0.9 | 1.7 | 0.00 | 0.00 | 0.00 | 83 | 1020.0 |
| 20260504081615 | 72 | 205 | 0.9 | 1.7 | 0.00 | 0.00 | 0.00 | 81 | 1020.4 |
| 20260504081111 | 72 | 224 | 0.0 | 0.0 | 0.00 | 0.00 | 0.00 | 81 | 1020.6 |
| 20260504080609 | 72 | 221 | 0.0 | 0.9 | 0.00 | 0.00 | 0.00 | 80 | 1020.3 |
| 20260504080105 | 72 | 230 | 0.0 | 0.0 | 0.00 | 0.00 | 0.00 | 80 | 1020.6 |